| time (UTC) | temp F | wind direction | speed knots | gust knots | rain 1hr in | rain 24hr in | rain mn in | humidity % | barometer mb |
| 20260505004339 | 46 | 30 | 0.9 | 2.6 | 0.00 | 0.01 | 0.01 | 76 | 1014.0 |
| 20260505003326 | 45 | 110 | 0.9 | 5.2 | 0.00 | 0.01 | 0.01 | 77 | 1014.2 |
| 20260505002325 | 46 | 68 | 2.6 | 7.0 | 0.00 | 0.01 | 0.01 | 76 | 1014.2 |
| 20260505001325 | 47 | 132 | 1.7 | 6.1 | 0.01 | 0.01 | 0.01 | 70 | 1014.7 |
| 20260505000323 | 47 | 103 | 0.9 | 4.3 | 0.01 | 0.01 | 0.01 | 69 | 1014.8 |
| 20260504235807 | 47 | 222 | 2.6 | 5.2 | 0.01 | 0.01 | 0.01 | 67 | 1014.7 |
| 20260504234321 | 47 | 228 | 1.7 | 4.3 | 0.01 | 0.01 | 0.01 | 68 | 1014.5 |
| 20260504233319 | 47 | 266 | 0.9 | 4.3 | 0.01 | 0.01 | 0.01 | 69 | 1014.2 |
| 20260504232320 | 47 | 317 | 2.6 | 9.6 | 0.01 | 0.01 | 0.01 | 68 | 1014.2 |
| 20260504231319 | 49 | 308 | 2.6 | 8.7 | 0.00 | 0.00 | 0.00 | 62 | 1013.9 |
| 20260504230317 | 49 | 305 | 4.3 | 9.6 | 0.00 | 0.00 | 0.00 | 54 | 1013.9 |
| 20260504225319 | 50 | 301 | 1.7 | 9.6 | 0.00 | 0.00 | 0.00 | 54 | 1013.7 |
| 20260504224317 | 50 | 335 | 3.5 | 12.2 | 0.00 | 0.00 | 0.00 | 53 | 1013.4 |
| 20260504223316 | 50 | 280 | 6.1 | 12.2 | 0.00 | 0.00 | 0.00 | 54 | 1013.3 |
| 20260504222315 | 51 | 345 | 6.1 | 13.9 | 0.00 | 0.00 | 0.00 | 51 | 1012.9 |
| 20260504221750 | 52 | 311 | 6.1 | 14.8 | 0.00 | 0.00 | 0.00 | 49 | 1013.2 |
| 20260504220313 | 55 | 12 | 5.2 | 11.3 | 0.00 | 0.00 | 0.00 | 42 | 1013.0 |
| 20260504215313 | 56 | 321 | 1.7 | 6.1 | 0.00 | 0.00 | 0.00 | 38 | 1012.8 |
| 20260504214315 | 56 | 355 | 2.6 | 7.0 | 0.00 | 0.00 | 0.00 | 38 | 1012.8 |
| 20260504213313 | 58 | 29 | 0.9 | 2.6 | 0.00 | 0.00 | 0.00 | 36 | 1012.9 |
| 20260504212312 | 58 | 116 | 1.7 | 5.2 | 0.00 | 0.00 | 0.00 | 33 | 1012.4 |
| 20260504211310 | 58 | 109 | 1.7 | 4.3 | 0.00 | 0.00 | 0.00 | 34 | 1012.4 |
| 20260504210310 | 58 | 70 | 0.0 | 4.3 | 0.00 | 0.00 | 0.00 | 34 | 1012.7 |
| 20260504205309 | 57 | 314 | 0.9 | 4.3 | 0.00 | 0.00 | 0.00 | 35 | 1012.8 |
| 20260504204307 | 58 | 354 | 0.9 | 4.3 | 0.00 | 0.00 | 0.00 | 38 | 1013.0 |
| 20260504203301 | 57 | 47 | 1.7 | 7.0 | 0.00 | 0.00 | 0.00 | 38 | 1013.3 |
| 20260504202300 | 56 | 326 | 2.6 | 8.7 | 0.00 | 0.00 | 0.00 | 43 | 1013.7 |
| 20260504202238 | 55 | 280 | 4.3 | 13.9 | 0.00 | 0.00 | 0.00 | 44 | 1013.9 |
| 20260504200727 | 53 | 256 | 5.2 | 11.3 | 0.00 | 0.00 | 0.00 | 50 | 1013.9 |
| 20260504195241 | 52 | 319 | 6.1 | 12.2 | 0.00 | 0.00 | 0.00 | 54 | 1014.4 |
| 20260504194241 | 51 | 284 | 4.3 | 11.3 | 0.00 | 0.00 | 0.00 | 58 | 1014.8 |
| 20260504193242 | 52 | 311 | 6.1 | 20.0 | 0.00 | 0.00 | 0.00 | 48 | 1014.5 |
| 20260504192243 | 55 | 291 | 0.9 | 4.3 | 0.00 | 0.00 | 0.00 | 39 | 1014.4 |
| 20260504191242 | 55 | 31 | 2.6 | 7.8 | 0.00 | 0.00 | 0.00 | 39 | 1014.0 |
| 20260504190715 | 55 | 39 | 1.7 | 7.0 | 0.00 | 0.00 | 0.00 | 39 | 1013.9 |
| 20260504185242 | 54 | 89 | 2.6 | 7.8 | 0.00 | 0.00 | 0.00 | 40 | 1014.3 |
| 20260504184224 | 53 | 49 | 3.5 | 13.9 | 0.00 | 0.00 | 0.00 | 42 | 1014.3 |
| 20260504183657 | 54 | 84 | 5.2 | 13.0 | 0.00 | 0.00 | 0.00 | 38 | 1014.4 |
| 20260504182224 | 55 | 255 | 7.0 | 14.8 | 0.00 | 0.00 | 0.00 | 34 | 1014.2 |
| 20260504181224 | 56 | 263 | 4.3 | 13.0 | 0.00 | 0.00 | 0.00 | 32 | 1013.9 |
| 20260504180223 | 56 | 305 | 6.1 | 13.9 | 0.00 | 0.00 | 0.00 | 33 | 1013.8 |
| 20260504175220 | 57 | 295 | 4.3 | 11.3 | 0.00 | 0.00 | 0.00 | 34 | 1013.8 |
| 20260504174220 | 57 | 332 | 4.3 | 12.2 | 0.00 | 0.00 | 0.00 | 32 | 1013.8 |
| 20260504173208 | 57 | 338 | 4.3 | 13.0 | 0.00 | 0.00 | 0.00 | 32 | 1013.9 |
| 20260504172206 | 57 | 354 | 5.2 | 13.9 | 0.00 | 0.00 | 0.00 | 32 | 1014.3 |
| 20260504171205 | 57 | 345 | 7.8 | 17.4 | 0.00 | 0.00 | 0.00 | 32 | 1014.3 |
| 20260504170205 | 58 | 321 | 7.8 | 15.6 | 0.00 | 0.00 | 0.00 | 32 | 1014.3 |
| 20260504160159 | 56 | 250 | 2.6 | 9.6 | 0.00 | 0.00 | 0.00 | 35 | 1015.0 |
| 20260504150142 | 54 | 262 | 1.7 | 5.2 | 0.00 | 0.00 | 0.00 | 37 | 1015.3 |
| 20260504141136 | 50 | 247 | 0.9 | 4.3 | 0.00 | 0.00 | 0.00 | 38 | 1015.4 |
| 20260504140135 | 46 | 302 | 0.0 | 1.7 | 0.00 | 0.00 | 0.00 | 46 | 1015.3 |
| 20260504130124 | 40 | 321 | 0.0 | 1.7 | 0.00 | 0.00 | 0.00 | 50 | 1015.0 |
| 20260504120104 | 38 | 315 | 0.0 | 2.6 | 0.00 | 0.00 | 0.00 | 54 | 1014.9 |
| 20260504110510 | 38 | 319 | 0.0 | 3.5 | 0.00 | 0.00 | 0.00 | 50 | 1015.2 |
| 20260504081947 | 40 | 315 | 0.0 | 0.9 | 0.00 | 0.00 | 0.00 | 47 | 1015.8 |
| 20260504080946 | 41 | 315 | 0.0 | 2.6 | 0.00 | 0.00 | 0.00 | 46 | 1015.9 |
| 20260504070407 | 41 | 311 | 0.0 | 2.6 | 0.00 | 0.00 | 0.00 | 50 | 1016.6 |
| 20260504045831 | 45 | 353 | 0.0 | 0.9 | 0.00 | 0.00 | 0.00 | 47 | 1017.2 |
| 20260504044820 | 45 | 353 | 0.0 | 0.9 | 0.00 | 0.00 | 0.00 | 46 | 1017.3 |
| 20260504043818 | 46 | 274 | 0.0 | 0.9 | 0.00 | 0.00 | 0.00 | 47 | 1017.4 |
| 20260504042818 | 47 | 277 | 0.0 | 0.9 | 0.00 | 0.00 | 0.00 | 46 | 1017.4 |
| 20260504041819 | 49 | 277 | 0.0 | 0.9 | 0.00 | 0.00 | 0.00 | 43 | 1017.6 |
| 20260504040812 | 50 | 250 | 0.0 | 0.9 | 0.00 | 0.00 | 0.00 | 39 | 1017.6 |
| 20260504040247 | 51 | 266 | 0.9 | 2.6 | 0.00 | 0.00 | 0.00 | 38 | 1017.6 |
| 20260504034801 | 51 | 249 | 1.7 | 5.2 | 0.00 | 0.00 | 0.00 | 35 | 1017.7 |
| 20260504033802 | 51 | 285 | 0.0 | 1.7 | 0.00 | 0.00 | 0.00 | 36 | 1017.7 |
| 20260504032801 | 52 | 224 | 0.0 | 0.9 | 0.00 | 0.00 | 0.00 | 33 | 1017.6 |
| 20260504032236 | 52 | 268 | 0.0 | 2.6 | 0.00 | 0.00 | 0.00 | 35 | 1017.7 |
| 20260504030757 | 53 | 262 | 0.9 | 1.7 | 0.00 | 0.00 | 0.00 | 32 | 1017.7 |
| 20260504030235 | 53 | 271 | 0.9 | 1.7 | 0.00 | 0.00 | 0.00 | 34 | 1017.6 |
| 20260504024758 | 54 | 248 | 0.9 | 6.1 | 0.00 | 0.00 | 0.00 | 30 | 1017.6 |
| 20260504023759 | 53 | 250 | 2.6 | 6.1 | 0.00 | 0.00 | 0.00 | 33 | 1017.4 |
| 20260504022743 | 54 | 208 | 5.2 | 8.7 | 0.00 | 0.00 | 0.00 | 34 | 1017.6 |
| 20260504021727 | 54 | 231 | 5.2 | 8.7 | 0.00 | 0.00 | 0.00 | 34 | 1017.3 |
| 20260504020724 | 55 | 249 | 5.2 | 12.2 | 0.00 | 0.00 | 0.00 | 33 | 1017.4 |
| 20260504015723 | 55 | 301 | 3.5 | 9.6 | 0.00 | 0.00 | 0.00 | 31 | 1017.3 |
| 20260504014721 | 56 | 231 | 0.9 | 6.1 | 0.00 | 0.00 | 0.00 | 31 | 1017.3 |
| 20260504013723 | 56 | 242 | 0.9 | 4.3 | 0.00 | 0.00 | 0.00 | 30 | 1017.3 |
| 20260504012722 | 56 | 328 | 0.0 | 1.7 | 0.00 | 0.00 | 0.00 | 30 | 1017.2 |
| 20260504011714 | 56 | 72 | 0.9 | 4.3 | 0.00 | 0.00 | 0.00 | 30 | 1017.1 |
| 20260504010711 | 57 | 92 | 2.6 | 6.1 | 0.00 | 0.00 | 0.00 | 29 | 1017.2 |
| 20260504005710 | 58 | 142 | 1.7 | 5.2 | 0.00 | 0.00 | 0.00 | 27 | 1017.2 |
| 20260504004711 | 59 | 103 | 0.9 | 6.1 | 0.00 | 0.00 | 0.00 | 27 | 1017.1 |